Regional Weather Roundup
Issued by NWS Kansas City/Pleasant Hill, MO

Home | Current Version | Previous Version | Graphics & Text | Print | Product List | Glossary Off
Versions: 1 2 3 4 5 6 7 8 9 10 11 12 13 14 15 16 17 18 19 20 21 22 23 24 25 26 27

000
ASUS43 KEAX 231510
RWREAX

WEATHER ROUNDUP FOR EASTERN KANSAS AND NORTHWEST MISSOURI
NATIONAL WEATHER SERVICE KANSAS CITY/PLEASANT HILL MO
900 AM CST THU FEB 23 2017

KSZ040-057-103>105-MOZ028-029-037-043-231600-
...KANSAS CITY METROPOLITAN AREA...

CITY           SKY/WX    TMP DP  RH WIND       PRES   REMARKS
K.C. INTL      CLOUDY    49  39  68 NE13      29.70F
K.C. DOWNTOWN  PTSUNNY   51  40  65 NE15      29.69S
LEES SUMMIT    PTSUNNY   50  41  71 NE13      29.68S
OLATHE - IXD   CLOUDY    51  40  65 NE10G18   29.67S
OLATHE - OJC   CLOUDY    50  41  71 NE15G21   29.68R
LAWRENCE       PTSUNNY   51  39  63 NE17      29.67F

$$

MOZ001>008-011>017-020>025-030>033-038>040-044>046-053-054-231600-
...NORTHERN AND CENTRAL MISSOURI...

CITY           SKY/WX    TMP DP  RH WIND       PRES   REMARKS
ST. JOSEPH     CLOUDY    44  41  89 NE12      29.73F
WARRENSBURG    CLOUDY    52  41  66 NE10G17   29.67F
WHITEMAN AFB   LGT RAIN  53  47  80 E9        29.66F
CLINTON        CLOUDY    54  54 100 E9        29.66F
SEDALIA        CLOUDY    55  48  77 E10       29.69F
WARSAW         NOT AVBL
CHILLICOTHE      N/A     42  38  85 NE13      29.75F
KIRKSVILLE     CLOUDY    41  39  93 N13       29.80S WCI  34

$$

MOZ041-047>049-056>058-063>065-088>090-097-231600-
...EASTERN AND SOUTHERN MISSOURI...

CITY           SKY/WX    TMP DP  RH WIND       PRES   REMARKS
ST. LOUIS INTL CLOUDY    60  55  83 CALM      29.74R
SPIRIT OF STL  MOSUNNY   53  53 100 CALM      29.73R FOG
COLUMBIA       CLOUDY    53  51  93 NE8       29.72F
JEFFERSON CITY FOG       50  50 100 E3        29.72F VSB 1/2
ROLLA          FOG       53  53 100 S9        29.71F VSB 1/4
OSAGE BEACH    CLOUDY    56  54  93 SE6       29.71F
SPRINGFIELD    PTSUNNY   55  54  96 SE18      29.65F FOG
BRANSON        FOG       54  54 100 SE8       29.70F VSB 1/4
JOPLIN         MOSUNNY   59  54  83 SE14      29.59F
WEST PLAINS    CLOUDY    55  54  96 S7        29.75F FOG

$$

IAZ060-094-KSZ022-034>040-054-083-096-NEZ052-066-093-231600-
...KANSAS...SOUTHEAST NEBRASKA AND IOWA...

CITY           SKY/WX    TMP DP  RH WIND       PRES   REMARKS
TOPEKA         CLOUDY    51  40  65 NE15      29.65F
MANHATTAN      CLOUDY    50  37  61 E16G29    29.61F
EMPORIA        PTSUNNY   52  41  66 NE14      29.61F
CHANUTE        SUNNY     58  51  78 E6        29.60F
WICHITA        CLOUDY    54  42  64 NE15      29.55F
OMAHA          CLOUDY    37  32  82 NE13      29.78F WCI  29
LINCOLN        CLOUDY    37  34  89 NE16G26   29.76F WCI  28
FALLS CITY     CLOUDY    41  38  89 NE12      29.71F WCI  34
LAMONI         CLOUDY    39  37  92 E12       29.78R WCI  32
DES MOINES     CLOUDY    41  36  82 NE15      29.82F WCI  33

$$





USA.gov is the U.S. government's official web portal to all federal, state and local government web resources and services.